User: anonymous
Location: Onan Observatory
(44.8103°N, 93.9397°W)
Time: 00:14:47
(UTC-05:00)
Language:

Iridium 90 - Orbit

View from above orbital plane
View from above orbital plane
View from above satellite
View from above satellite

Ground track
Ground track

The orbit data is extracted from the following two-line orbital elements,

1 27373U 02005B   14240.49683789  .00000132  00000-0  33478-4 0  4523
2 27373 086.4442 057.9553 0003362 144.6517 215.4907 14.42953861663734
Epoch (UTC): 28 August 2014 11:55:26
Eccentricity: 0.0003362
inclination: 86.4442°
perigee height: 746 km
apogee height: 751 km
right ascension of ascending node: 57.9553°
argument of perigee: 144.6517°
revolutions per day: 14.42953861
mean anomaly at epoch: 215.4907°
orbit number at epoch: 66373

The dashed part of the orbit path shows where the satellite is in the earth's shadow,  

DLR